Time,TemperatureF,DewpointF,PressureIn,WindDirection,WindDirectionDegrees,WindSpeedMPH,WindSpeedGustMPH,Humidity,HourlyPrecipIn,Conditions,Clouds,dailyrainin,SoftwareType,DateUTC
2013-03-18 00:00:00,17.3,12.2,30.65,NW,320,0.0,0.0,80,0.00,,,0.00,Wunderground v.1.15,2013-03-18 04:00:00,
2013-03-18 00:05:00,17.3,12.2,30.65,NW,320,0.0,0.0,80,0.00,,,0.00,Wunderground v.1.15,2013-03-18 04:05:00,
2013-03-18 00:10:00,17.2,12.4,30.64,NW,320,0.0,0.0,81,0.00,,,0.00,Wunderground v.1.15,2013-03-18 04:10:00,
2013-03-18 00:15:00,17.1,12.3,30.64,NW,320,0.0,0.0,81,0.00,,,0.00,Wunderground v.1.15,2013-03-18 04:15:00,
2013-03-18 00:20:00,16.9,12.4,30.64,NW,320,0.0,0.0,82,0.00,,,0.00,Wunderground v.1.15,2013-03-18 04:20:00,
2013-03-18 00:25:00,16.8,12.3,30.64,NW,320,0.0,0.0,82,0.00,,,0.00,Wunderground v.1.15,2013-03-18 04:25:00,
2013-03-18 00:30:00,16.7,12.4,30.64,NW,320,0.0,0.0,83,0.00,,,0.00,Wunderground v.1.15,2013-03-18 04:30:00,
2013-03-18 00:35:00,16.7,12.7,30.64,NW,320,0.0,0.0,84,0.00,,,0.00,Wunderground v.1.15,2013-03-18 04:35:00,
2013-03-18 00:45:00,16.2,12.2,30.64,NW,320,0.0,2.0,84,0.00,,,0.00,Wunderground v.1.15,2013-03-18 04:45:00,
2013-03-18 00:50:00,16.2,12.5,30.64,NW,320,1.0,1.0,85,0.00,,,0.00,Wunderground v.1.15,2013-03-18 04:50:00,
2013-03-18 00:55:00,16.4,12.7,30.64,NW,320,1.0,1.0,85,0.00,,,0.00,Wunderground v.1.15,2013-03-18 04:55:00,
2013-03-18 01:00:00,16.4,12.9,30.65,NW,320,0.0,0.0,86,0.00,,,0.00,Wunderground v.1.15,2013-03-18 05:00:00,
2013-03-18 01:05:00,16.0,12.3,30.65,NW,320,0.0,1.0,85,0.00,,,0.00,Wunderground v.1.15,2013-03-18 05:05:00,
2013-03-18 01:15:00,15.5,11.8,30.65,NW,320,0.0,0.0,85,0.00,,,0.00,Wunderground v.1.15,2013-03-18 05:15:00,
2013-03-18 01:20:00,15.4,11.7,30.65,NW,320,0.0,0.0,85,0.00,,,0.00,Wunderground v.1.15,2013-03-18 05:20:00,
2013-03-18 01:25:00,15.5,11.8,30.65,NW,320,0.0,0.0,85,0.00,,,0.00,Wunderground v.1.15,2013-03-18 05:25:00,
2013-03-18 01:30:00,15.9,12.2,30.65,NW,320,0.0,0.0,85,0.00,,,0.00,Wunderground v.1.15,2013-03-18 05:30:00,
2013-03-18 01:35:00,16.1,12.7,30.65,NW,320,0.0,1.0,86,0.00,,,0.00,Wunderground v.1.15,2013-03-18 05:35:00,
2013-03-18 01:40:00,15.8,12.1,30.65,NW,320,1.0,1.0,85,0.00,,,0.00,Wunderground v.1.15,2013-03-18 05:40:00,
2013-03-18 01:50:00,15.8,12.4,30.65,NW,320,0.0,1.0,86,0.00,,,0.00,Wunderground v.1.15,2013-03-18 05:50:00,
2013-03-18 01:55:00,15.8,12.4,30.65,NW,320,0.0,1.0,86,0.00,,,0.00,Wunderground v.1.15,2013-03-18 05:55:00,
2013-03-18 02:00:00,15.6,12.2,30.65,NW,320,0.0,0.0,86,0.00,,,0.00,Wunderground v.1.15,2013-03-18 06:00:00,
2013-03-18 02:05:00,15.4,12.0,30.65,NW,320,0.0,1.0,86,0.00,,,0.00,Wunderground v.1.15,2013-03-18 06:05:00,
2013-03-18 02:10:00,15.5,12.3,30.65,NW,320,0.0,0.0,87,0.00,,,0.00,Wunderground v.1.15,2013-03-18 06:10:00,
2013-03-18 02:20:00,15.3,12.1,30.65,NW,320,0.0,0.0,87,0.00,,,0.00,Wunderground v.1.15,2013-03-18 06:20:00,
2013-03-18 02:25:00,15.3,12.1,30.65,NW,320,0.0,0.0,87,0.00,,,0.00,Wunderground v.1.15,2013-03-18 06:25:00,
2013-03-18 02:30:00,15.2,12.0,30.64,NW,320,0.0,0.0,87,0.00,,,0.00,Wunderground v.1.15,2013-03-18 06:30:00,
2013-03-18 02:35:00,15.3,12.1,30.64,NW,320,0.0,0.0,87,0.00,,,0.00,Wunderground v.1.15,2013-03-18 06:35:00,
2013-03-18 02:40:00,15.3,12.1,30.64,NW,320,0.0,0.0,87,0.00,,,0.00,Wunderground v.1.15,2013-03-18 06:40:00,
2013-03-18 02:45:00,15.0,11.8,30.64,NW,320,0.0,0.0,87,0.00,,,0.00,Wunderground v.1.15,2013-03-18 06:45:00,
2013-03-18 02:55:00,14.9,12.0,30.63,NW,320,0.0,0.0,88,0.00,,,0.00,Wunderground v.1.15,2013-03-18 06:55:00,
2013-03-18 03:00:00,15.1,12.2,30.63,NW,320,0.0,0.0,88,0.00,,,0.00,Wunderground v.1.15,2013-03-18 07:00:00,
2013-03-18 03:05:00,15.3,12.4,30.63,NW,320,0.0,0.0,88,0.00,,,0.00,Wunderground v.1.15,2013-03-18 07:05:00,
2013-03-18 03:10:00,15.2,12.3,30.63,NW,320,0.0,0.0,88,0.00,,,0.00,Wunderground v.1.15,2013-03-18 07:10:00,
2013-03-18 03:15:00,15.2,12.3,30.62,NW,320,0.0,0.0,88,0.00,,,0.00,Wunderground v.1.15,2013-03-18 07:15:00,
2013-03-18 03:25:00,14.9,12.0,30.62,NW,320,0.0,0.0,88,0.00,,,0.00,Wunderground v.1.15,2013-03-18 07:25:00,
2013-03-18 03:30:00,15.1,12.4,30.62,NW,320,0.0,0.0,89,0.00,,,0.00,Wunderground v.1.15,2013-03-18 07:30:00,
2013-03-18 03:35:00,15.4,12.5,30.62,NW,320,0.0,0.0,88,0.00,,,0.00,Wunderground v.1.15,2013-03-18 07:35:00,
2013-03-18 03:40:00,15.7,13.0,30.62,NW,320,0.0,0.0,89,0.00,,,0.00,Wunderground v.1.15,2013-03-18 07:40:00,
2013-03-18 03:45:00,16.3,13.6,30.61,NW,320,0.0,1.0,89,0.00,,,0.00,Wunderground v.1.15,2013-03-18 07:45:00,
2013-03-18 03:50:00,16.9,13.7,30.61,NW,320,1.0,1.0,87,0.00,,,0.00,Wunderground v.1.15,2013-03-18 07:50:00,
2013-03-18 03:55:00,17.1,13.6,30.61,NW,320,0.0,1.0,86,0.00,,,0.00,Wunderground v.1.15,2013-03-18 07:55:00,
2013-03-18 04:00:00,17.3,13.6,30.61,NW,320,0.0,2.0,85,0.00,,,0.00,Wunderground v.1.15,2013-03-18 08:00:00,
2013-03-18 04:05:00,17.9,13.9,30.61,NW,320,1.0,2.0,84,0.00,,,0.00,Wunderground v.1.15,2013-03-18 08:05:00,
2013-03-18 04:10:00,18.2,13.9,30.61,NW,320,1.0,2.0,83,0.00,,,0.00,Wunderground v.1.15,2013-03-18 08:10:00,
2013-03-18 04:15:00,18.3,13.7,30.61,NW,320,1.0,2.0,82,0.00,,,0.00,Wunderground v.1.15,2013-03-18 08:15:00,
2013-03-18 04:20:00,18.5,13.6,30.61,NW,320,1.0,1.0,81,0.00,,,0.00,Wunderground v.1.15,2013-03-18 08:20:00,
2013-03-18 04:30:00,18.9,13.7,30.61,NW,320,2.0,2.0,80,0.00,,,0.00,Wunderground v.1.15,2013-03-18 08:30:00,
2013-03-18 04:35:00,19.0,13.8,30.61,NW,320,1.0,3.0,80,0.00,,,0.00,Wunderground v.1.15,2013-03-18 08:35:00,
2013-03-18 04:40:00,19.1,13.9,30.62,NW,320,2.0,2.0,80,0.00,,,0.00,Wunderground v.1.15,2013-03-18 08:40:00,
2013-03-18 04:45:00,19.2,14.0,30.62,NW,320,2.0,2.0,80,0.00,,,0.00,Wunderground v.1.15,2013-03-18 08:45:00,
2013-03-18 04:50:00,19.2,14.0,30.62,NW,320,1.0,2.0,80,0.00,,,0.00,Wunderground v.1.15,2013-03-18 08:50:00,
2013-03-18 05:00:00,19.4,14.2,30.62,NW,320,2.0,2.0,80,0.00,,,0.00,Wunderground v.1.15,2013-03-18 09:00:00,
2013-03-18 05:05:00,19.4,14.2,30.62,NW,320,2.0,3.0,80,0.00,,,0.00,Wunderground v.1.15,2013-03-18 09:05:00,
2013-03-18 05:10:00,19.5,14.3,30.62,NW,320,2.0,2.0,80,0.00,,,0.00,Wunderground v.1.15,2013-03-18 09:10:00,
2013-03-18 05:15:00,19.3,14.1,30.62,SSE,151,2.0,2.0,80,0.00,,,0.00,Wunderground v.1.15,2013-03-18 09:15:00,
2013-03-18 05:20:00,18.9,13.7,30.63,SSE,151,1.0,1.0,80,0.00,,,0.00,Wunderground v.1.15,2013-03-18 09:20:00,
2013-03-18 05:25:00,18.6,13.7,30.63,SSE,151,2.0,2.0,81,0.00,,,0.00,Wunderground v.1.15,2013-03-18 09:25:00,
2013-03-18 05:35:00,18.5,13.9,30.63,SE,137,3.0,3.0,82,0.00,,,0.00,Wunderground v.1.15,2013-03-18 09:35:00,
2013-03-18 05:40:00,18.8,14.2,30.63,SE,144,4.0,4.0,82,0.00,,,0.00,Wunderground v.1.15,2013-03-18 09:40:00,
2013-03-18 05:45:00,18.8,13.9,30.63,SE,142,4.0,4.0,81,0.00,,,0.00,Wunderground v.1.15,2013-03-18 09:45:00,
2013-03-18 05:50:00,18.6,13.7,30.63,SE,138,3.0,6.0,81,0.00,,,0.00,Wunderground v.1.15,2013-03-18 09:50:00,
2013-03-18 05:55:00,18.5,13.6,30.63,SSE,150,3.0,6.0,81,0.00,,,0.00,Wunderground v.1.15,2013-03-18 09:55:00,
2013-03-18 06:00:00,18.5,13.6,30.63,SSE,155,4.0,4.0,81,0.00,,,0.00,Wunderground v.1.15,2013-03-18 10:00:00,
2013-03-18 06:10:00,18.5,13.6,30.64,SSE,158,4.0,6.0,81,0.00,,,0.00,Wunderground v.1.15,2013-03-18 10:10:00,
2013-03-18 06:15:00,18.6,13.5,30.64,SSE,153,4.0,6.0,80,0.00,,,0.00,Wunderground v.1.15,2013-03-18 10:15:00,
2013-03-18 06:20:00,18.6,13.5,30.63,SSE,153,3.0,4.0,80,0.00,,,0.00,Wunderground v.1.15,2013-03-18 10:20:00,
2013-03-18 06:25:00,18.8,13.7,30.64,SSE,155,4.0,4.0,80,0.00,,,0.00,Wunderground v.1.15,2013-03-18 10:25:00,
2013-03-18 06:30:00,19.0,13.8,30.63,SE,144,4.0,4.0,80,0.00,,,0.00,Wunderground v.1.15,2013-03-18 10:30:00,
2013-03-18 06:40:00,19.1,13.7,30.64,SE,134,5.0,7.0,79,0.00,,,0.00,Wunderground v.1.15,2013-03-18 10:40:00,
2013-03-18 06:45:00,19.4,13.7,30.63,SSE,153,6.0,7.0,78,0.00,,,0.00,Wunderground v.1.15,2013-03-18 10:45:00,
2013-03-18 06:50:00,19.4,13.7,30.63,SSE,150,7.0,9.0,78,0.00,,,0.00,Wunderground v.1.15,2013-03-18 10:50:00,
2013-03-18 06:55:00,19.4,13.7,30.63,SE,139,6.0,9.0,78,0.00,,,0.00,Wunderground v.1.15,2013-03-18 10:55:00,
2013-03-18 07:00:00,19.4,13.7,30.63,SE,134,6.0,7.0,78,0.00,,,0.00,Wunderground v.1.15,2013-03-18 11:00:00,
2013-03-18 07:05:00,19.4,13.7,30.64,SSE,152,7.0,9.0,78,0.00,,,0.00,Wunderground v.1.15,2013-03-18 11:05:00,
2013-03-18 07:10:00,19.3,13.6,30.64,SE,138,7.0,7.0,78,0.00,,,0.00,Wunderground v.1.15,2013-03-18 11:10:00,
2013-03-18 07:15:00,19.3,13.6,30.63,SE,144,7.0,9.0,78,0.00,,,0.00,Wunderground v.1.15,2013-03-18 11:15:00,
2013-03-18 07:25:00,19.4,13.7,30.64,SE,140,5.0,9.0,78,0.00,,,0.00,Wunderground v.1.15,2013-03-18 11:25:00,
2013-03-18 07:30:00,19.6,13.3,30.64,SE,136,6.0,6.0,76,0.00,,,0.00,Wunderground v.1.15,2013-03-18 11:30:00,
2013-03-18 07:35:00,19.7,13.4,30.64,SE,126,7.0,7.0,76,0.00,,,0.00,Wunderground v.1.15,2013-03-18 11:35:00,
2013-03-18 07:40:00,19.7,13.7,30.64,ESE,115,5.0,9.0,77,0.00,,,0.00,Wunderground v.1.15,2013-03-18 11:40:00,
2013-03-18 07:45:00,19.8,13.8,30.64,ESE,119,5.0,9.0,77,0.00,,,0.00,Wunderground v.1.15,2013-03-18 11:45:00,
2013-03-18 07:50:00,19.8,13.8,30.63,ESE,114,4.0,9.0,77,0.00,,,0.00,Wunderground v.1.15,2013-03-18 11:50:00,
2013-03-18 07:55:00,19.8,13.8,30.63,East,91,5.0,9.0,77,0.00,,,0.00,Wunderground v.1.15,2013-03-18 11:55:00,
2013-03-18 08:00:00,19.9,14.1,30.63,ESE,108,5.0,5.0,78,0.00,,,0.00,Wunderground v.1.15,2013-03-18 12:00:00,
2013-03-18 08:10:00,20.2,14.1,30.63,East,91,4.0,9.0,77,0.00,,,0.00,Wunderground v.1.15,2013-03-18 12:10:00,
2013-03-18 08:15:00,20.3,13.3,30.63,SE,136,5.0,9.0,74,0.00,,,0.00,Wunderground v.1.15,2013-03-18 12:15:00,
2013-03-18 08:20:00,20.5,13.2,30.62,SE,126,5.0,5.0,73,0.00,,,0.00,Wunderground v.1.15,2013-03-18 12:20:00,
2013-03-18 08:25:00,20.4,12.8,30.61,ESE,117,7.0,10.0,72,0.00,,,0.00,Wunderground v.1.15,2013-03-18 12:25:00,
2013-03-18 08:30:00,20.3,13.0,30.61,East,80,8.0,9.0,73,0.00,,,0.00,Wunderground v.1.15,2013-03-18 12:30:00,
2013-03-18 08:35:00,20.2,12.9,30.60,ESE,114,9.0,9.0,73,0.00,,,0.00,Wunderground v.1.15,2013-03-18 12:35:00,
2013-03-18 08:45:00,20.4,12.8,30.60,ESE,107,9.0,9.0,72,0.00,,,0.00,Wunderground v.1.15,2013-03-18 12:45:00,
2013-03-18 08:50:00,20.5,13.2,30.59,ENE,68,9.0,9.0,73,0.00,,,0.00,Wunderground v.1.15,2013-03-18 12:50:00,
2013-03-18 08:55:00,20.6,13.0,30.59,ESE,109,9.0,9.0,72,0.00,,,0.00,Wunderground v.1.15,2013-03-18 12:55:00,
2013-03-18 09:00:00,20.8,13.2,30.59,East,96,9.0,11.0,72,0.00,,,0.00,Wunderground v.1.15,2013-03-18 13:00:00,
2013-03-18 09:05:00,21.0,13.1,30.59,SE,127,9.0,11.0,71,0.00,,,0.00,Wunderground v.1.15,2013-03-18 13:05:00,
2013-03-18 09:10:00,21.3,13.0,30.59,East,96,9.0,14.0,70,0.00,,,0.00,Wunderground v.1.15,2013-03-18 13:10:00,
2013-03-18 09:20:00,21.5,12.6,30.58,ESE,104,10.0,10.0,68,0.00,,,0.00,Wunderground v.1.15,2013-03-18 13:20:00,
2013-03-18 09:25:00,21.7,12.4,30.57,East,92,10.0,10.0,67,0.00,,,0.00,Wunderground v.1.15,2013-03-18 13:25:00,
2013-03-18 09:30:00,21.9,13.0,30.57,ESE,104,10.0,10.0,68,0.00,,,0.00,Wunderground v.1.15,2013-03-18 13:30:00,
2013-03-18 09:35:00,22.1,12.8,30.57,ESE,104,10.0,12.0,67,0.00,,,0.00,Wunderground v.1.15,2013-03-18 13:35:00,
2013-03-18 09:40:00,22.2,12.6,30.56,ESE,120,11.0,11.0,66,0.00,,,0.00,Wunderground v.1.15,2013-03-18 13:40:00,
2013-03-18 09:50:00,22.8,12.8,30.56,ESE,123,11.0,11.0,65,0.00,,,0.00,Wunderground v.1.15,2013-03-18 13:50:00,
2013-03-18 09:55:00,23.0,13.3,30.56,ESE,110,10.0,11.0,66,0.00,,,0.00,Wunderground v.1.15,2013-03-18 13:55:00,
2013-03-18 10:00:00,23.4,13.4,30.56,SE,140,10.0,15.0,65,0.00,,,0.00,Wunderground v.1.15,2013-03-18 14:00:00,
2013-03-18 10:05:00,23.4,13.4,30.55,SE,136,10.0,15.0,65,0.00,,,0.00,Wunderground v.1.15,2013-03-18 14:05:00,
2013-03-18 10:10:00,23.9,14.2,30.55,SE,141,10.0,10.0,66,0.00,,,0.00,Wunderground v.1.15,2013-03-18 14:10:00,
2013-03-18 10:15:00,24.0,13.6,30.55,ESE,107,10.0,10.0,64,0.00,,,0.00,Wunderground v.1.15,2013-03-18 14:15:00,
2013-03-18 10:25:00,24.3,13.5,30.54,ESE,117,10.0,11.0,63,0.00,,,0.00,Wunderground v.1.15,2013-03-18 14:25:00,
2013-03-18 10:30:00,24.5,13.7,30.54,East,91,9.0,11.0,63,0.00,,,0.00,Wunderground v.1.15,2013-03-18 14:30:00,
2013-03-18 10:35:00,24.7,14.2,30.54,ESE,115,10.0,11.0,64,0.00,,,0.00,Wunderground v.1.15,2013-03-18 14:35:00,
2013-03-18 10:40:00,24.9,13.7,30.53,ESE,116,10.0,10.0,62,0.00,,,0.00,Wunderground v.1.15,2013-03-18 14:40:00,
2013-03-18 10:45:00,25.3,14.5,30.54,East,98,8.0,10.0,63,0.00,,,0.00,Wunderground v.1.15,2013-03-18 14:45:00,
2013-03-18 10:55:00,25.5,14.3,30.53,East,101,10.0,13.0,62,0.00,,,0.00,Wunderground v.1.15,2013-03-18 14:55:00,
2013-03-18 11:00:00,25.6,14.4,30.53,East,96,9.0,9.0,62,0.00,,,0.00,Wunderground v.1.15,2013-03-18 15:00:00,
2013-03-18 11:05:00,26.0,14.0,30.53,SE,143,9.0,10.0,60,0.00,,,0.00,Wunderground v.1.15,2013-03-18 15:05:00,
2013-03-18 11:10:00,26.2,14.2,30.52,ESE,118,10.0,13.0,60,0.00,,,0.00,Wunderground v.1.15,2013-03-18 15:10:00,
2013-03-18 11:15:00,26.2,14.2,30.52,East,99,10.0,13.0,60,0.00,,,0.00,Wunderground v.1.15,2013-03-18 15:15:00,
2013-03-18 11:20:00,26.4,13.6,30.52,ESE,107,10.0,11.0,58,0.00,,,0.00,Wunderground v.1.15,2013-03-18 15:20:00,
2013-03-18 11:30:00,27.4,14.9,30.52,ESE,107,7.0,11.0,59,0.00,,,0.00,Wunderground v.1.15,2013-03-18 15:30:00,
2013-03-18 11:35:00,27.3,14.5,30.51,ESE,120,8.0,11.0,58,0.00,,,0.00,Wunderground v.1.15,2013-03-18 15:35:00,
2013-03-18 11:40:00,27.4,14.9,30.51,SE,142,9.0,12.0,59,0.00,,,0.00,Wunderground v.1.15,2013-03-18 15:40:00,
2013-03-18 11:45:00,27.7,15.2,30.51,East,101,8.0,12.0,59,0.00,,,0.00,Wunderground v.1.15,2013-03-18 15:45:00,
2013-03-18 11:50:00,27.9,15.0,30.50,East,98,8.0,8.0,58,0.00,,,0.00,Wunderground v.1.15,2013-03-18 15:50:00,
2013-03-18 11:55:00,27.9,15.0,30.50,ESE,117,9.0,9.0,58,0.00,,,0.00,Wunderground v.1.15,2013-03-18 15:55:00,
2013-03-18 12:00:00,28.0,15.5,30.49,ESE,118,10.0,10.0,59,0.00,,,0.00,Wunderground v.1.15,2013-03-18 16:00:00,
2013-03-18 12:10:00,28.3,15.8,30.49,ESE,121,11.0,11.0,59,0.00,,,0.00,Wunderground v.1.15,2013-03-18 16:10:00,
2013-03-18 12:15:00,28.6,16.1,30.49,ESE,123,10.0,11.0,59,0.00,,,0.00,Wunderground v.1.15,2013-03-18 16:15:00,
2013-03-18 12:20:00,28.8,15.9,30.49,ESE,105,9.0,9.0,58,0.00,,,0.00,Wunderground v.1.15,2013-03-18 16:20:00,
2013-03-18 12:25:00,28.9,16.0,30.48,ESE,119,10.0,15.0,58,0.00,,,0.00,Wunderground v.1.15,2013-03-18 16:25:00,
2013-03-18 12:30:00,29.1,16.9,30.48,East,101,10.0,10.0,60,0.00,,,0.00,Wunderground v.1.15,2013-03-18 16:30:00,
2013-03-18 12:35:00,29.3,17.1,30.48,ESE,113,9.0,14.0,60,0.00,,,0.00,Wunderground v.1.15,2013-03-18 16:35:00,
2013-03-18 12:40:00,29.5,17.7,30.48,SE,127,9.0,9.0,61,0.00,,,0.00,Wunderground v.1.15,2013-03-18 16:40:00,
2013-03-18 12:45:00,29.8,18.0,30.48,SE,140,8.0,9.0,61,0.00,,,0.00,Wunderground v.1.15,2013-03-18 16:45:00,
2013-03-18 12:50:00,30.0,17.4,30.47,ESE,119,8.0,16.0,59,0.00,,,0.00,Wunderground v.1.15,2013-03-18 16:50:00,
2013-03-18 12:55:00,30.4,18.2,30.47,ESE,115,8.0,16.0,60,0.00,,,0.00,Wunderground v.1.15,2013-03-18 16:55:00,
2013-03-18 13:05:00,31.0,17.9,30.46,ESE,109,7.0,8.0,58,0.00,,,0.00,Wunderground v.1.15,2013-03-18 17:05:00,
2013-03-18 13:10:00,31.3,17.0,30.45,SE,144,8.0,16.0,55,0.00,,,0.00,Wunderground v.1.15,2013-03-18 17:10:00,
2013-03-18 13:15:00,31.4,17.1,30.44,SE,136,10.0,16.0,55,0.00,,,0.00,Wunderground v.1.15,2013-03-18 17:15:00,
2013-03-18 13:20:00,31.4,17.1,30.44,SE,136,11.0,16.0,55,0.00,,,0.00,Wunderground v.1.15,2013-03-18 17:20:00,
2013-03-18 13:25:00,31.4,17.1,30.43,SE,140,11.0,16.0,55,0.00,,,0.00,Wunderground v.1.15,2013-03-18 17:25:00,
2013-03-18 13:35:00,31.6,17.3,30.43,SE,144,10.0,16.0,55,0.00,,,0.00,Wunderground v.1.15,2013-03-18 17:35:00,
2013-03-18 13:40:00,31.9,17.5,30.43,SSE,156,8.0,16.0,55,0.00,,,0.00,Wunderground v.1.15,2013-03-18 17:40:00,
2013-03-18 13:45:00,31.9,17.1,30.43,SE,131,10.0,16.0,54,0.00,,,0.00,Wunderground v.1.15,2013-03-18 17:45:00,
2013-03-18 13:50:00,32.0,16.8,30.42,SE,143,11.0,16.0,53,0.00,,,0.00,Wunderground v.1.15,2013-03-18 17:50:00,
2013-03-18 13:55:00,32.0,15.9,30.42,South,169,11.0,16.0,51,0.00,,,0.00,Wunderground v.1.15,2013-03-18 17:55:00,
2013-03-18 14:00:00,32.0,16.3,30.42,SE,135,11.0,16.0,52,0.00,,,0.00,Wunderground v.1.15,2013-03-18 18:00:00,
2013-03-18 14:10:00,31.8,16.2,30.42,ESE,119,12.0,12.0,52,0.00,,,0.00,Wunderground v.1.15,2013-03-18 18:10:00,
2013-03-18 14:15:00,31.8,16.2,30.42,SSE,152,12.0,16.0,52,0.00,,,0.00,Wunderground v.1.15,2013-03-18 18:15:00,
2013-03-18 14:20:00,32.0,16.8,30.42,SE,130,11.0,11.0,53,0.00,,,0.00,Wunderground v.1.15,2013-03-18 18:20:00,
2013-03-18 14:25:00,32.1,16.4,30.41,SE,134,11.0,12.0,52,0.00,,,0.00,Wunderground v.1.15,2013-03-18 18:25:00,
2013-03-18 14:30:00,32.0,15.9,30.41,SE,132,11.0,11.0,51,0.00,,,0.00,Wunderground v.1.15,2013-03-18 18:30:00,
2013-03-18 14:40:00,32.0,16.8,30.41,SE,140,11.0,16.0,53,0.00,,,0.00,Wunderground v.1.15,2013-03-18 18:40:00,
2013-03-18 14:45:00,31.9,16.7,30.41,SSW,193,11.0,16.0,53,0.00,,,0.00,Wunderground v.1.15,2013-03-18 18:45:00,
2013-03-18 14:50:00,31.5,18.8,30.41,SSE,151,13.0,26.0,59,0.00,,,0.00,Wunderground v.1.15,2013-03-18 18:50:00,
2013-03-18 14:55:00,30.9,19.4,30.40,SE,133,14.0,26.0,62,0.00,,,0.00,Wunderground v.1.15,2013-03-18 18:55:00,
2013-03-18 15:00:00,30.4,20.0,30.40,SE,146,14.0,21.0,65,0.00,,,0.00,Wunderground v.1.15,2013-03-18 19:00:00,
2013-03-18 15:05:00,29.8,20.9,30.40,SE,143,15.0,23.0,69,0.00,,,0.00,Wunderground v.1.15,2013-03-18 19:05:00,
2013-03-18 15:15:00,27.5,23.3,30.40,ESE,121,15.0,17.0,84,0.00,,,0.00,Wunderground v.1.15,2013-03-18 19:15:00,
2013-03-18 15:20:00,27.3,23.7,30.40,SE,142,12.0,17.0,86,0.00,,,0.00,Wunderground v.1.15,2013-03-18 19:20:00,
2013-03-18 15:25:00,27.1,24.0,30.39,SE,125,12.0,17.0,88,0.00,,,0.00,Wunderground v.1.15,2013-03-18 19:25:00,
2013-03-18 15:30:00,27.1,24.3,30.38,SSE,155,13.0,13.0,89,0.00,,,0.00,Wunderground v.1.15,2013-03-18 19:30:00,
2013-03-18 15:35:00,27.0,24.5,30.38,SE,126,11.0,16.0,90,0.00,,,0.00,Wunderground v.1.15,2013-03-18 19:35:00,
2013-03-18 15:45:00,27.0,24.7,30.37,SE,136,10.0,16.0,91,0.00,,,0.00,Wunderground v.1.15,2013-03-18 19:45:00,
2013-03-18 15:50:00,27.1,24.8,30.38,East,100,9.0,9.0,91,0.00,,,0.00,Wunderground v.1.15,2013-03-18 19:50:00,
2013-03-18 15:55:00,26.9,24.6,30.37,ESE,108,11.0,15.0,91,0.00,,,0.00,Wunderground v.1.15,2013-03-18 19:55:00,
2013-03-18 16:00:00,26.7,24.4,30.37,East,101,13.0,17.0,91,0.00,,,0.00,Wunderground v.1.15,2013-03-18 20:00:00,
2013-03-18 16:05:00,26.5,24.5,30.37,SE,129,13.0,17.0,92,0.00,,,0.00,Wunderground v.1.15,2013-03-18 20:05:00,
2013-03-18 16:10:00,26.3,24.3,30.36,SE,128,12.0,16.0,92,0.00,,,0.00,Wunderground v.1.15,2013-03-18 20:10:00,
2013-03-18 16:20:00,26.3,24.3,30.35,ESE,123,10.0,10.0,92,0.00,,,0.00,Wunderground v.1.15,2013-03-18 20:20:00,
2013-03-18 16:25:00,26.3,24.6,30.35,ESE,113,9.0,11.0,93,0.00,,,0.00,Wunderground v.1.15,2013-03-18 20:25:00,
2013-03-18 16:30:00,26.3,24.6,30.35,ESE,112,9.0,9.0,93,0.00,,,0.00,Wunderground v.1.15,2013-03-18 20:30:00,
2013-03-18 16:35:00,26.3,24.6,30.35,SE,124,9.0,13.0,93,0.00,,,0.00,Wunderground v.1.15,2013-03-18 20:35:00,
2013-03-18 16:40:00,25.8,24.1,30.34,ESE,114,11.0,16.0,93,0.00,,,0.00,Wunderground v.1.15,2013-03-18 20:40:00,
2013-03-18 16:50:00,25.9,24.2,30.34,East,81,13.0,13.0,93,0.00,,,0.00,Wunderground v.1.15,2013-03-18 20:50:00,
2013-03-18 16:55:00,26.0,24.3,30.34,ESE,113,12.0,16.0,93,0.00,,,0.00,Wunderground v.1.15,2013-03-18 20:55:00,
2013-03-18 17:00:00,26.0,24.3,30.34,East,90,10.0,16.0,93,0.00,,,0.00,Wunderground v.1.15,2013-03-18 21:00:00,
2013-03-18 17:05:00,26.0,24.3,30.33,ESE,105,10.0,16.0,93,0.00,,,0.00,Wunderground v.1.15,2013-03-18 21:05:00,
2013-03-18 17:10:00,25.9,24.2,30.33,ESE,102,11.0,16.0,93,0.00,,,0.00,Wunderground v.1.15,2013-03-18 21:10:00,
2013-03-18 17:15:00,25.9,24.2,30.33,SE,136,11.0,16.0,93,0.00,,,0.00,Wunderground v.1.15,2013-03-18 21:15:00,
2013-03-18 17:25:00,26.0,24.3,30.32,SSE,148,9.0,16.0,93,0.00,,,0.00,Wunderground v.1.15,2013-03-18 21:25:00,
2013-03-18 17:30:00,25.9,24.2,30.32,SE,139,10.0,10.0,93,0.00,,,0.00,Wunderground v.1.15,2013-03-18 21:30:00,
2013-03-18 17:35:00,25.9,24.2,30.32,ESE,118,11.0,11.0,93,0.00,,,0.00,Wunderground v.1.15,2013-03-18 21:35:00,
2013-03-18 17:40:00,25.8,24.1,30.31,ESE,119,10.0,10.0,93,0.00,,,0.00,Wunderground v.1.15,2013-03-18 21:40:00,
2013-03-18 17:45:00,25.9,24.2,30.30,SE,135,10.0,16.0,93,0.00,,,0.00,Wunderground v.1.15,2013-03-18 21:45:00,
2013-03-18 17:55:00,26.0,24.3,30.29,SE,136,10.0,16.0,93,0.00,,,0.00,Wunderground v.1.15,2013-03-18 21:55:00,
2013-03-18 18:00:00,26.0,24.3,30.29,SE,136,10.0,10.0,93,0.00,,,0.00,Wunderground v.1.15,2013-03-18 22:00:00,
2013-03-18 18:10:00,26.1,24.6,30.29,SE,129,10.0,16.0,94,0.00,,,0.00,Wunderground v.1.15,2013-03-18 22:10:00,
2013-03-18 18:15:00,26.1,24.6,30.28,ESE,113,11.0,16.0,94,0.00,,,0.00,Wunderground v.1.15,2013-03-18 22:15:00,
2013-03-18 18:20:00,26.1,24.6,30.27,SE,132,11.0,13.0,94,0.00,,,0.00,Wunderground v.1.15,2013-03-18 22:20:00,
2013-03-18 18:30:00,26.2,24.7,30.26,SE,130,11.0,11.0,94,0.00,,,0.00,Wunderground v.1.15,2013-03-18 22:30:00,
2013-03-18 18:35:00,26.3,24.8,30.26,SSE,163,11.0,11.0,94,0.00,,,0.00,Wunderground v.1.15,2013-03-18 22:35:00,
2013-03-18 18:40:00,26.3,24.8,30.26,ESE,121,12.0,12.0,94,0.00,,,0.00,Wunderground v.1.15,2013-03-18 22:40:00,
2013-03-18 18:45:00,26.3,24.6,30.26,SE,139,12.0,13.0,93,0.00,,,0.00,Wunderground v.1.15,2013-03-18 22:45:00,
2013-03-18 18:50:00,26.4,24.7,30.25,SE,145,13.0,14.0,93,0.00,,,0.00,Wunderground v.1.15,2013-03-18 22:50:00,
2013-03-18 18:55:00,26.4,24.7,30.25,SE,140,12.0,14.0,93,0.00,,,0.00,Wunderground v.1.15,2013-03-18 22:55:00,
2013-03-18 19:00:00,26.5,24.8,30.25,ESE,116,11.0,12.0,93,0.00,,,0.00,Wunderground v.1.15,2013-03-18 23:00:00,
2013-03-18 19:10:00,26.5,24.8,30.25,SE,126,11.0,23.0,93,0.00,,,0.00,Wunderground v.1.15,2013-03-18 23:10:00,
2013-03-18 19:15:00,26.5,24.8,30.25,SE,134,11.0,23.0,93,0.00,,,0.00,Wunderground v.1.15,2013-03-18 23:15:00,
2013-03-18 19:20:00,26.5,24.8,30.25,SE,140,10.0,23.0,93,0.00,,,0.00,Wunderground v.1.15,2013-03-18 23:20:00,
2013-03-18 19:25:00,26.4,24.7,30.25,SSE,159,9.0,23.0,93,0.00,,,0.00,Wunderground v.1.15,2013-03-18 23:25:00,
2013-03-18 19:30:00,26.5,24.8,30.25,SE,141,10.0,10.0,93,0.00,,,0.00,Wunderground v.1.15,2013-03-18 23:30:00,
2013-03-18 19:35:00,26.5,24.8,30.24,SE,140,11.0,11.0,93,0.00,,,0.00,Wunderground v.1.15,2013-03-18 23:35:00,
2013-03-18 19:40:00,26.5,24.8,30.24,SE,129,10.0,23.0,93,0.00,,,0.00,Wunderground v.1.15,2013-03-18 23:40:00,
2013-03-18 19:45:00,26.5,25.0,30.24,SE,134,10.0,23.0,94,0.00,,,0.00,Wunderground v.1.15,2013-03-18 23:45:00,
2013-03-18 19:50:00,26.5,24.8,30.24,SE,142,10.0,10.0,93,0.00,,,0.00,Wunderground v.1.15,2013-03-18 23:50:00,
2013-03-18 19:55:00,26.6,24.8,30.23,ESE,118,11.0,11.0,93,0.00,,,0.00,Wunderground v.1.15,2013-03-18 23:55:00,
2013-03-18 20:05:00,26.7,25.2,30.22,SE,130,12.0,23.0,94,0.00,,,0.00,Wunderground v.1.15,2013-03-19 00:05:00,
2013-03-18 20:10:00,26.8,25.3,30.22,SE,131,11.0,23.0,94,0.00,,,0.00,Wunderground v.1.15,2013-03-19 00:10:00,
2013-03-18 20:15:00,26.8,25.3,30.21,SSE,148,11.0,23.0,94,0.00,,,0.00,Wunderground v.1.15,2013-03-19 00:15:00,
2013-03-18 20:20:00,26.8,25.0,30.21,SE,138,12.0,12.0,93,0.00,,,0.00,Wunderground v.1.15,2013-03-19 00:20:00,
2013-03-18 20:25:00,26.8,25.3,30.21,SE,129,11.0,13.0,94,0.00,,,0.00,Wunderground v.1.15,2013-03-19 00:25:00,
2013-03-18 20:35:00,26.9,25.4,30.21,SE,135,10.0,18.0,94,0.00,,,0.00,Wunderground v.1.15,2013-03-19 00:35:00,
2013-03-18 20:40:00,27.0,25.5,30.21,SE,143,10.0,23.0,94,0.00,,,0.00,Wunderground v.1.15,2013-03-19 00:40:00,
2013-03-18 20:45:00,27.1,25.6,30.21,East,101,12.0,23.0,94,0.00,,,0.00,Wunderground v.1.15,2013-03-19 00:45:00,
2013-03-18 20:50:00,27.1,25.6,30.20,SSE,159,11.0,11.0,94,0.00,,,0.00,Wunderground v.1.15,2013-03-19 00:50:00,
2013-03-18 20:55:00,27.2,25.7,30.20,ESE,116,11.0,23.0,94,0.00,,,0.00,Wunderground v.1.15,2013-03-19 00:55:00,
2013-03-18 21:00:00,27.3,25.8,30.19,SSE,159,12.0,23.0,94,0.00,,,0.00,Wunderground v.1.15,2013-03-19 01:00:00,
2013-03-18 21:10:00,27.5,26.0,30.18,SE,144,12.0,12.0,94,0.00,,,0.00,Wunderground v.1.15,2013-03-19 01:10:00,
2013-03-18 21:15:00,27.6,26.1,30.18,SE,130,12.0,14.0,94,0.00,,,0.00,Wunderground v.1.15,2013-03-19 01:15:00,
2013-03-18 21:20:00,27.8,26.6,30.18,ESE,122,13.0,23.0,95,0.00,,,0.00,Wunderground v.1.15,2013-03-19 01:20:00,
2013-03-18 21:25:00,28.0,26.5,30.17,SE,133,14.0,23.0,94,0.00,,,0.00,Wunderground v.1.15,2013-03-19 01:25:00,
2013-03-18 21:30:00,28.2,26.7,30.17,SE,126,15.0,15.0,94,0.00,,,0.00,Wunderground v.1.15,2013-03-19 01:30:00,
2013-03-18 21:40:00,28.3,26.8,30.17,SSE,161,13.0,13.0,94,0.00,,,0.00,Wunderground v.1.15,2013-03-19 01:40:00,
2013-03-18 21:45:00,28.4,26.9,30.17,SSW,195,14.0,14.0,94,0.00,,,0.00,Wunderground v.1.15,2013-03-19 01:45:00,
2013-03-18 21:50:00,28.5,27.0,30.17,SSE,165,15.0,15.0,94,0.00,,,0.00,Wunderground v.1.15,2013-03-19 01:50:00,
2013-03-18 21:55:00,28.7,26.9,30.17,SE,139,16.0,22.0,93,0.00,,,0.00,Wunderground v.1.15,2013-03-19 01:55:00,
2013-03-18 22:00:00,28.8,27.0,30.17,SE,139,16.0,16.0,93,0.00,,,0.00,Wunderground v.1.15,2013-03-19 02:00:00,
2013-03-18 22:05:00,28.9,27.1,30.16,SE,140,16.0,17.0,93,0.00,,,0.00,Wunderground v.1.15,2013-03-19 02:05:00,
2013-03-18 22:15:00,29.1,27.1,30.16,SE,146,18.0,18.0,92,0.00,,,0.00,Wunderground v.1.15,2013-03-19 02:15:00,
2013-03-18 22:20:00,29.0,27.0,30.16,SSE,150,18.0,23.0,92,0.00,,,0.00,Wunderground v.1.15,2013-03-19 02:20:00,
2013-03-18 22:25:00,29.1,26.8,30.15,ESE,123,18.0,23.0,91,0.00,,,0.00,Wunderground v.1.15,2013-03-19 02:25:00,
2013-03-18 22:30:00,29.1,26.8,30.15,SE,134,18.0,18.0,91,0.00,,,0.00,Wunderground v.1.15,2013-03-19 02:30:00,
2013-03-18 22:35:00,29.1,26.8,30.14,SE,138,18.0,20.0,91,0.00,,,0.00,Wunderground v.1.15,2013-03-19 02:35:00,
2013-03-18 22:45:00,29.0,26.4,30.13,SSE,158,18.0,23.0,90,0.00,,,0.00,Wunderground v.1.15,2013-03-19 02:45:00,
2013-03-18 22:50:00,29.0,26.4,30.13,SE,138,19.0,19.0,90,0.00,,,0.00,Wunderground v.1.15,2013-03-19 02:50:00,
2013-03-18 22:55:00,29.2,26.6,30.13,SE,138,18.0,23.0,90,0.00,,,0.00,Wunderground v.1.15,2013-03-19 02:55:00,
2013-03-18 23:00:00,29.4,26.8,30.12,SE,129,19.0,23.0,90,0.00,,,0.00,Wunderground v.1.15,2013-03-19 03:00:00,
2013-03-18 23:05:00,29.4,26.6,30.13,SE,129,19.0,26.0,89,0.00,,,0.00,Wunderground v.1.15,2013-03-19 03:05:00,
2013-03-18 23:10:00,29.3,26.5,30.12,SSE,149,19.0,19.0,89,0.00,,,0.00,Wunderground v.1.15,2013-03-19 03:10:00,
2013-03-18 23:20:00,29.3,26.5,30.11,SE,130,18.0,18.0,89,0.00,,,0.00,Wunderground v.1.15,2013-03-19 03:20:00,
2013-03-18 23:25:00,29.3,26.5,30.10,SE,131,18.0,23.0,89,0.00,,,0.00,Wunderground v.1.15,2013-03-19 03:25:00,
2013-03-18 23:30:00,29.3,26.5,30.09,ESE,113,18.0,23.0,89,0.00,,,0.00,Wunderground v.1.15,2013-03-19 03:30:00,
2013-03-18 23:35:00,29.4,26.6,30.09,SSE,150,20.0,23.0,89,0.00,,,0.00,Wunderground v.1.15,2013-03-19 03:35:00,
2013-03-18 23:40:00,29.5,26.7,30.09,ESE,123,19.0,23.0,89,0.00,,,0.00,Wunderground v.1.15,2013-03-19 03:40:00,
2013-03-18 23:50:00,29.5,26.4,30.08,SE,142,18.0,18.0,88,0.00,,,0.00,Wunderground v.1.15,2013-03-19 03:50:00,
2013-03-18 23:55:00,29.5,26.1,30.08,SE,138,18.0,26.0,87,0.00,,,0.00,Wunderground v.1.15,2013-03-19 03:55:00,